Miscellaneous Local Product
Issued by NWS Hastings, NE

Home | Current Version | Previous Version | Graphics & Text | Print | Product List | Glossary On
Versions: 1 2 3 4 5 6 7 8 9 10 11 12 13 14 15 16 17 18 19 20 21 22 23 24 25 26 27 28 29 30 31 32 33 34 35 36 37 38 39 40 41 42 43 44 45 46 47 48 49 50
000
AXUS43 KGID 290002
MISGRI

GID CWA HOURLY WEATHER ROUNDUP
NATIONAL WEATHER SERVICE HASTINGS NE
600 PM CST SUN DEC 28 2014

NOTE: "FAIR" INDICATES FEW OR NO CLOUDS BELOW 12,000 FEET WITH NO
SIGNIFICANT WEATHER AND/OR OBSTRUCTIONS TO VISIBILITY.

...SOUTH CENTRAL NEBRASKA...

CITY           SKY/WX    TMP DP  RH WIND       PRES   REMARKS
GRAND ISLAND   CLOUDY    24  18  77 E5        30.09R WCI  18
HASTINGS       CLOUDY    27  20  75 E3        30.06R
KEARNEY        CLOUDY    23  18  80 NE5       30.05S WCI  17
ORD            CLOUDY    21  16  81 CALM      30.06R
YORK           CLOUDY    27  23  86 NE6       30.10R WCI  20
AURORA         CLOUDY    25  20  80 N6        30.09R WCI  18
LEXINGTON      CLOUDY    26  20  77 E8        30.00F WCI  18
HOLDREGE       CLOUDY    25  19  77 NE3       30.02S
HEBRON         CLOUDY    32  24  72 CALM      30.09S

...NEBRASKA PANHANDLE...

CITY           SKY/WX    TMP DP  RH WIND       PRES   REMARKS
CHADRON        CLOUDY    23  20  88 N7        29.96R WCI  15
ALLIANCE       MOCLDY    22  20  92 E7        29.90S WCI  13
SCOTTSBLUFF    MOCLDY    17  12  80 E8        29.91R WCI   7
SIDNEY         PTCLDY    12   5  73 SW7       29.91R WCI   1

...WESTERN AND NORTH CENTRAL NEBRASKA...

CITY           SKY/WX    TMP DP  RH WIND       PRES   REMARKS
VALENTINE      CLOUDY    23  14  68 E6        30.03R WCI  16
AINSWORTH      CLOUDY    21  16  79 E7        30.04R WCI  13
ONEILL         MOCLDY    19  16  86 NE8       30.09R WCI   9
BROKEN BOW     CLOUDY    24  17  74 E5        30.02S WCI  18
IMPERIAL       PTCLDY    18  12  77 E5        29.96R WCI  11
NORTH PLATTE   CLOUDY    23  16  74 S6        30.00R WCI  16
MCCOOK         CLOUDY    24  16  71 E7        30.00R WCI  16

...EASTERN NEBRASKA...

CITY           SKY/WX    TMP DP  RH WIND       PRES   REMARKS
NORFOLK        CLOUDY    22  16  78 NE8       30.11R WCI  12
SO SIOUX CITY  CLOUDY    20  14  77 NE6       30.17R WCI  12
TEKAMAH        MOCLDY    24  18  77 N8        30.16R WCI  15
COLUMBUS       CLOUDY    21  12  68 E7        30.13S WCI  13
ALBION         PTCLDY    18  12  78 CALM      30.10R
OMAHA EPPLEY   MOCLDY    28  22  78 N9        30.15R WCI  19
OFFUTT AFB     PTCLDY    28  23  82 N2        30.12R
MILLARD        PTCLDY    32  19  59 NW5       30.13S WCI  27
LINCOLN        CLOUDY    31  22  69 N7        30.13R WCI  24
NEBRASKA CITY  MOCLDY    33  22  64 CALM      30.12R
BEATRICE       CLOUDY    35  24  64 S3        30.10R
FALLS CITY     CLOUDY    37  20  50 CALM      30.12R

...NORTHERN KANSAS...

CITY           SKY/WX    TMP DP  RH WIND       PRES   REMARKS
GOODLAND       CLEAR     22  19  89 SE8       29.93R WCI  12
HILL CITY      CLOUDY    31  25  78 E6        30.02R WCI  25
NORTON         CLOUDY    28  19  69 E5        30.01S WCI  23
PHILLIPSBURG   CLOUDY    34  25  69 NE5       30.05S WCI  30
BELOIT         MOCLDY    36  23  60 E7        30.07S WCI  30
HAYS           CLOUDY    34  18  51 E8        30.02S WCI  27
RUSSELL        MOCLDY    33  23  66 SE8       30.03R WCI  26
CONCORDIA      CLOUDY    33  22  63 SE3       30.08S
SALINA         MOCLDY    36  22  56 SE8       30.09R WCI  30
TOPEKA         PTCLDY    37  20  50 S3        30.15R



USA.gov is the U.S. government's official web portal to all federal, state and local government web resources and services.